Regional Weather Roundup
Issued by NWS

Home | Current Version | Previous Version | Graphics & Text | Print | Product List | Glossary On
Versions: 1 2 3 4 5 6 7 8 9 10 11 12 13 14 15 16 17 18 19 20 21 22 23 24 25 26 27 28 29 30 31 32 33 34 35 36 37 38 39 40 41 42 43 44 45 46 47 48 49 50
000
ASUS43 KBIS 261410
RWRND

NORTH DAKOTA REGIONAL WEATHER ROUNDUP
NATIONAL WEATHER SERVICE BISMARCK ND
900 AM CDT THU MAR 26 2015

NOTE: "FAIR" INDICATES FEW OR NO CLOUDS BELOW 12,000 FEET WITH NO
SIGNIFICANT WEATHER AND/OR OBSTRUCTIONS TO VISIBILITY.


NDZ001>003-009>011-017-261500-
NORTHWEST NORTH DAKOTA

CITY           SKY/WX    TMP DP  RH WIND       PRES   REMARKS
WILLISTON      CLOUDY    30  26  85 E5        30.16S
MINOT          CLOUDY    27  22  81 NE7       30.20R WCI  19
MINOT AFB      CLOUDY    27  27  98 E7        30.20R WCI  20
$$

NDZ018>021-031>035-040>046-261500-
SOUTHWEST NORTH DAKOTA

CITY           SKY/WX    TMP DP  RH WIND       PRES   REMARKS
BISMARCK       CLOUDY    27  24  89 E5        30.19R
DICKINSON      LGT SNOW  28  25  88 SE3       30.10R FOG
GARRISON         N/A     28  23  81 E7        30.18R
HETTINGER ARPT LGT SNOW  29  26  89 CALM      30.11S FOG
$$

NDZ004>008-012>016-024-026-027-054-261500-
NORTHEAST NORTH DAKOTA

CITY           SKY/WX    TMP DP  RH WIND       PRES   REMARKS
GRAND FORKS    MOSUNNY   24  18  77 N10       30.25R WCI  14
GRND FRKS AFB  SUNNY     23  17  79 N10       30.25R WCI  12
DEVILS LAKE    SUNNY     23  18  80 NE8       30.24R WCI  14
$$

NDZ022-023-025-028>030-036>039-047>053-261500-
SOUTHEAST NORTH DAKOTA

CITY           SKY/WX    TMP DP  RH WIND       PRES   REMARKS
FARGO          PTSUNNY   24  18  77 NW12      30.23R WCI  13
JAMESTOWN      CLOUDY    27  22  81 N9        30.21R WCI  18
$$




USA.gov is the U.S. government's official web portal to all federal, state and local government web resources and services.